Time,TemperatureF,DewpointF,PressureIn,WindDirection,WindDirectionDegrees,WindSpeedMPH,WindSpeedGustMPH,Humidity,HourlyPrecipIn,Conditions,Clouds,dailyrainin,SoftwareType,DateUTC
2013-06-03 00:02:00,66.7,64.0,29.93,NNW,327,0.0,-999.0,91,-99.99,,,0.00,weatherlink.com 1.10,2013-06-03 04:02:00,
2013-06-03 00:17:00,66.4,64.0,29.93,NNW,327,0.0,-999.0,91,-99.99,,,0.00,weatherlink.com 1.10,2013-06-03 04:17:00,
2013-06-03 00:32:00,66.2,64.0,29.93,NNW,327,0.0,-999.0,91,-99.99,,,0.00,weatherlink.com 1.10,2013-06-03 04:32:00,
2013-06-03 00:47:00,65.8,63.0,29.92,NNW,327,0.0,-999.0,91,-99.99,,,0.00,weatherlink.com 1.10,2013-06-03 04:47:00,
2013-06-03 01:02:00,65.4,63.0,29.93,NNW,327,0.0,-999.0,91,-99.99,,,0.00,weatherlink.com 1.10,2013-06-03 05:02:00,
2013-06-03 01:17:00,65.2,63.0,29.92,NNW,327,0.0,-999.0,91,-99.99,,,0.00,weatherlink.com 1.10,2013-06-03 05:17:00,
2013-06-03 01:32:00,65.3,62.0,29.92,NNW,327,0.0,-999.0,90,-99.99,,,0.00,weatherlink.com 1.10,2013-06-03 05:32:00,
2013-06-03 01:47:00,65.3,62.0,29.92,NNW,327,0.0,-999.0,90,-99.99,,,0.00,weatherlink.com 1.10,2013-06-03 05:47:00,
2013-06-03 02:02:00,65.0,62.0,29.92,NNW,327,0.0,-999.0,90,-99.99,,,0.00,weatherlink.com 1.10,2013-06-03 06:02:00,
2013-06-03 02:17:00,65.1,62.0,29.92,NNW,327,0.0,-999.0,90,-99.99,,,0.00,weatherlink.com 1.10,2013-06-03 06:17:00,
2013-06-03 02:32:00,65.1,62.0,29.92,NNW,327,0.0,-999.0,90,-99.99,,,0.00,weatherlink.com 1.10,2013-06-03 06:32:00,
2013-06-03 02:47:00,64.7,62.0,29.92,NNW,327,0.0,-999.0,90,-99.99,,,0.00,weatherlink.com 1.10,2013-06-03 06:47:00,
2013-06-03 03:02:00,64.5,62.0,29.91,NNW,327,0.0,-999.0,90,-99.99,,,0.00,weatherlink.com 1.10,2013-06-03 07:02:00,
2013-06-03 03:17:00,64.5,62.0,29.91,NNW,327,0.0,-999.0,90,-99.99,,,0.00,weatherlink.com 1.10,2013-06-03 07:17:00,
2013-06-03 03:32:00,64.3,61.0,29.91,NNW,327,0.0,-999.0,90,-99.99,,,0.00,weatherlink.com 1.10,2013-06-03 07:32:00,
2013-06-03 03:47:00,64.0,61.0,29.91,NNW,327,0.0,-999.0,90,-99.99,,,0.00,weatherlink.com 1.10,2013-06-03 07:47:00,
2013-06-03 04:02:00,63.9,61.0,29.91,NNW,327,0.0,-999.0,90,-99.99,,,0.00,weatherlink.com 1.10,2013-06-03 08:02:00,
2013-06-03 04:17:00,63.7,61.0,29.91,NNW,327,0.0,-999.0,90,-99.99,,,0.00,weatherlink.com 1.10,2013-06-03 08:17:00,
2013-06-03 04:32:00,63.3,61.0,29.91,NNW,327,0.0,-999.0,91,-99.99,,,0.00,weatherlink.com 1.10,2013-06-03 08:32:00,
2013-06-03 04:47:00,63.5,61.0,29.91,NNW,327,0.0,-999.0,90,-99.99,,,0.00,weatherlink.com 1.10,2013-06-03 08:47:00,
2013-06-03 05:02:00,63.2,60.0,29.91,NNW,327,0.0,-999.0,90,-99.99,,,0.00,weatherlink.com 1.10,2013-06-03 09:02:00,
2013-06-03 05:17:00,63.8,61.0,29.91,NNW,342,0.0,-999.0,89,-99.99,,,0.00,weatherlink.com 1.10,2013-06-03 09:17:00,
2013-06-03 05:32:00,63.9,61.0,29.92,NNW,342,0.0,-999.0,90,-99.99,,,0.00,weatherlink.com 1.10,2013-06-03 09:32:00,
2013-06-03 05:47:00,63.8,61.0,29.92,NNW,342,0.0,-999.0,89,-99.99,,,0.00,weatherlink.com 1.10,2013-06-03 09:47:00,
2013-06-03 06:02:00,63.8,61.0,29.92,NNW,342,0.0,-999.0,89,-99.99,,,0.00,weatherlink.com 1.10,2013-06-03 10:02:00,
2013-06-03 06:17:00,64.5,61.0,29.93,North,350,0.0,-999.0,89,-99.99,,,0.00,weatherlink.com 1.10,2013-06-03 10:17:00,
2013-06-03 06:32:00,64.7,62.0,29.93,North,350,0.0,-999.0,89,-99.99,,,0.00,weatherlink.com 1.10,2013-06-03 10:32:00,
2013-06-03 06:47:00,64.9,62.0,29.93,NNE,30,0.0,-999.0,89,-99.99,,,0.00,weatherlink.com 1.10,2013-06-03 10:47:00,
2013-06-03 07:03:00,65.0,62.0,29.94,NE,41,0.0,-999.0,89,-99.99,,,0.00,weatherlink.com 1.10,2013-06-03 11:03:00,
2013-06-03 07:18:00,65.0,61.0,29.95,NNE,32,0.0,-999.0,88,-99.99,,,0.00,weatherlink.com 1.10,2013-06-03 11:18:00,
2013-06-03 07:33:00,65.2,62.0,29.95,NNE,31,2.0,-999.0,88,-99.99,,,0.00,weatherlink.com 1.10,2013-06-03 11:33:00,
2013-06-03 07:48:00,65.3,62.0,29.95,NNE,17,0.0,-999.0,88,-99.99,,,0.00,weatherlink.com 1.10,2013-06-03 11:48:00,
2013-06-03 08:03:00,65.2,62.0,29.96,NE,50,0.0,-999.0,89,-99.99,,,0.00,weatherlink.com 1.10,2013-06-03 12:03:00,
2013-06-03 08:18:00,65.4,62.0,29.96,NE,41,0.0,-999.0,88,-99.99,,,0.00,weatherlink.com 1.10,2013-06-03 12:18:00,
2013-06-03 08:33:00,65.8,62.0,29.96,NE,35,0.0,-999.0,88,-99.99,,,0.00,weatherlink.com 1.10,2013-06-03 12:33:00,
2013-06-03 08:48:00,66.3,63.0,29.97,ENE,71,0.0,-999.0,88,-99.99,,,0.00,weatherlink.com 1.10,2013-06-03 12:48:00,
2013-06-03 09:03:00,67.0,63.0,29.98,NE,53,0.0,-999.0,88,-99.99,,,0.00,weatherlink.com 1.10,2013-06-03 13:03:00,
2013-06-03 09:18:00,67.5,65.0,29.98,ENE,74,0.0,-999.0,90,-99.99,,,0.00,weatherlink.com 1.10,2013-06-03 13:18:00,
2013-06-03 09:33:00,68.2,66.0,29.98,NE,42,0.0,-999.0,91,-99.99,,,0.00,weatherlink.com 1.10,2013-06-03 13:33:00,
2013-06-03 09:48:00,69.9,67.0,29.98,NNE,26,0.0,-999.0,90,-99.99,,,0.00,weatherlink.com 1.10,2013-06-03 13:48:00,
2013-06-03 10:03:00,70.1,67.0,29.99,NNE,22,5.0,-999.0,90,-99.99,,,0.00,weatherlink.com 1.10,2013-06-03 14:03:00,
2013-06-03 10:18:00,70.5,67.0,29.98,NNE,22,0.0,-999.0,89,-99.99,,,0.00,weatherlink.com 1.10,2013-06-03 14:18:00,
2013-06-03 10:33:00,72.3,68.0,29.98,ENE,75,0.0,-999.0,87,-99.99,,,0.00,weatherlink.com 1.10,2013-06-03 14:33:00,
2013-06-03 10:48:00,73.4,68.0,29.99,NE,38,0.0,-999.0,83,-99.99,,,0.00,weatherlink.com 1.10,2013-06-03 14:48:00,
2013-06-03 11:03:00,73.7,68.0,29.99,North,5,0.0,-999.0,82,-99.99,,,0.00,weatherlink.com 1.10,2013-06-03 15:03:00,
2013-06-03 11:18:00,74.8,68.0,29.98,North,360,4.0,-999.0,80,-99.99,,,0.00,weatherlink.com 1.10,2013-06-03 15:18:00,
2013-06-03 11:33:00,75.5,68.0,29.98,North,360,7.0,-999.0,77,-99.99,,,0.00,weatherlink.com 1.10,2013-06-03 15:33:00,
2013-06-03 11:48:00,75.8,67.0,29.98,NE,55,6.0,-999.0,74,-99.99,,,0.00,weatherlink.com 1.10,2013-06-03 15:48:00,
2013-06-03 12:03:00,76.6,66.0,29.98,North,350,6.0,-999.0,69,-99.99,,,0.00,weatherlink.com 1.10,2013-06-03 16:03:00,
2013-06-03 12:18:00,76.7,66.0,29.98,NE,46,3.0,-999.0,69,-99.99,,,0.00,weatherlink.com 1.10,2013-06-03 16:18:00,
2013-06-03 12:33:00,77.0,66.0,29.98,NNE,24,4.0,-999.0,69,-99.99,,,0.00,weatherlink.com 1.10,2013-06-03 16:33:00,
2013-06-03 12:48:00,76.2,65.0,29.98,NW,317,8.0,-999.0,68,-99.99,,,0.00,weatherlink.com 1.10,2013-06-03 16:48:00,
2013-06-03 13:03:00,77.7,66.0,29.97,NNE,26,11.0,-999.0,67,-99.99,,,0.00,weatherlink.com 1.10,2013-06-03 17:03:00,
2013-06-03 13:18:00,78.0,65.0,29.97,North,5,9.0,-999.0,64,-99.99,,,0.00,weatherlink.com 1.10,2013-06-03 17:18:00,
2013-06-03 13:33:00,78.1,66.0,29.96,North,360,6.0,-999.0,66,-99.99,,,0.00,weatherlink.com 1.10,2013-06-03 17:33:00,
2013-06-03 13:48:00,78.2,65.0,29.96,NNW,332,4.0,-999.0,64,-99.99,,,0.00,weatherlink.com 1.10,2013-06-03 17:48:00,
2013-06-03 14:03:00,78.6,66.0,29.95,North,5,8.0,-999.0,65,-99.99,,,0.00,weatherlink.com 1.10,2013-06-03 18:03:00,
2013-06-03 14:18:00,78.1,65.0,29.95,North,11,7.0,-999.0,65,-99.99,,,0.00,weatherlink.com 1.10,2013-06-03 18:18:00,
2013-06-03 14:33:00,79.1,64.0,29.95,NNW,339,0.0,-999.0,60,-99.99,,,0.00,weatherlink.com 1.10,2013-06-03 18:33:00,
2013-06-03 14:48:00,78.6,64.0,29.95,NE,42,9.0,-999.0,62,-99.99,,,0.00,weatherlink.com 1.10,2013-06-03 18:48:00,
2013-06-03 15:03:00,78.1,63.0,29.95,NNW,346,7.0,-999.0,61,-99.99,,,0.00,weatherlink.com 1.10,2013-06-03 19:03:00,
2013-06-03 15:18:00,78.8,64.0,29.94,ENE,67,5.0,-999.0,60,-99.99,,,0.00,weatherlink.com 1.10,2013-06-03 19:18:00,
2013-06-03 15:33:00,78.8,65.0,29.94,North,10,5.0,-999.0,63,-99.99,,,0.00,weatherlink.com 1.10,2013-06-03 19:33:00,
2013-06-03 15:48:00,78.5,64.0,29.93,NNW,340,6.0,-999.0,62,-99.99,,,0.00,weatherlink.com 1.10,2013-06-03 19:48:00,
2013-06-03 16:03:00,79.1,64.0,29.93,NNE,13,7.0,-999.0,61,-99.99,,,0.00,weatherlink.com 1.10,2013-06-03 20:03:00,
2013-06-03 16:18:00,79.4,63.0,29.93,NE,44,11.0,-999.0,58,-99.99,,,0.00,weatherlink.com 1.10,2013-06-03 20:18:00,
2013-06-03 16:33:00,78.7,63.0,29.93,NNW,333,5.0,-999.0,59,-99.99,,,0.00,weatherlink.com 1.10,2013-06-03 20:33:00,
2013-06-03 16:48:00,78.8,63.0,29.93,North,360,6.0,-999.0,59,-99.99,,,0.00,weatherlink.com 1.10,2013-06-03 20:48:00,
2013-06-03 17:03:00,78.6,63.0,29.92,NNE,29,5.0,-999.0,60,-99.99,,,0.00,weatherlink.com 1.10,2013-06-03 21:03:00,
2013-06-03 17:18:00,78.8,64.0,29.92,North,5,8.0,-999.0,60,-99.99,,,0.00,weatherlink.com 1.10,2013-06-03 21:18:00,
2013-06-03 17:33:00,79.1,64.0,29.92,North,355,5.0,-999.0,60,-99.99,,,0.00,weatherlink.com 1.10,2013-06-03 21:33:00,
2013-06-03 17:48:00,79.1,64.0,29.91,North,351,6.0,-999.0,60,-99.99,,,0.00,weatherlink.com 1.10,2013-06-03 21:48:00,
2013-06-03 18:03:00,78.1,63.0,29.91,North,5,7.0,-999.0,61,-99.99,,,0.00,weatherlink.com 1.10,2013-06-03 22:03:00,
2013-06-03 18:18:00,78.4,63.0,29.91,NNE,32,7.0,-999.0,60,-99.99,,,0.00,weatherlink.com 1.10,2013-06-03 22:18:00,
2013-06-03 18:33:00,78.2,63.0,29.91,NNE,13,4.0,-999.0,60,-99.99,,,0.00,weatherlink.com 1.10,2013-06-03 22:33:00,
2013-06-03 18:48:00,78.9,63.0,29.91,NNE,24,10.0,-999.0,58,-99.99,,,0.00,weatherlink.com 1.10,2013-06-03 22:48:00,
2013-06-03 19:03:00,77.7,63.0,29.91,North,11,4.0,-999.0,61,-99.99,,,0.00,weatherlink.com 1.10,2013-06-03 23:03:00,
2013-06-03 19:18:00,78.5,63.0,29.91,NNE,14,5.0,-999.0,59,-99.99,,,0.00,weatherlink.com 1.10,2013-06-03 23:18:00,
2013-06-03 19:33:00,79.1,62.0,29.92,NNE,18,4.0,-999.0,57,-99.99,,,0.00,weatherlink.com 1.10,2013-06-03 23:33:00,
2013-06-03 19:48:00,78.3,63.0,29.92,North,5,3.0,-999.0,59,-99.99,,,0.00,weatherlink.com 1.10,2013-06-03 23:48:00,
2013-06-03 20:03:00,78.1,63.0,29.93,NNE,29,4.0,-999.0,60,-99.99,,,0.00,weatherlink.com 1.10,2013-06-04 00:03:00,
2013-06-03 20:18:00,77.3,63.0,29.93,NNE,29,1.0,-999.0,62,-99.99,,,0.00,weatherlink.com 1.10,2013-06-04 00:18:00,
2013-06-03 20:33:00,76.1,63.0,29.93,NE,36,2.0,-999.0,63,-99.99,,,0.00,weatherlink.com 1.10,2013-06-04 00:33:00,
2013-06-03 20:49:00,75.0,63.0,29.93,NE,35,0.0,-999.0,67,-99.99,,,0.00,weatherlink.com 1.10,2013-06-04 00:49:00,
2013-06-03 21:04:00,73.7,64.0,29.94,NE,35,0.0,-999.0,71,-99.99,,,0.00,weatherlink.com 1.10,2013-06-04 01:04:00,
2013-06-03 21:19:00,71.9,64.0,29.95,NE,35,0.0,-999.0,75,-99.99,,,0.00,weatherlink.com 1.10,2013-06-04 01:19:00,
2013-06-03 21:34:00,70.6,63.0,29.95,NE,35,0.0,-999.0,78,-99.99,,,0.00,weatherlink.com 1.10,2013-06-04 01:34:00,
2013-06-03 21:49:00,69.1,64.0,29.95,NE,35,0.0,-999.0,83,-99.99,,,0.00,weatherlink.com 1.10,2013-06-04 01:49:00,
2013-06-03 22:04:00,68.0,63.0,29.96,NE,35,0.0,-999.0,85,-99.99,,,0.00,weatherlink.com 1.10,2013-06-04 02:04:00,
2013-06-03 22:19:00,67.4,63.0,29.97,NE,35,0.0,-999.0,86,-99.99,,,0.00,weatherlink.com 1.10,2013-06-04 02:19:00,
2013-06-03 22:34:00,66.8,63.0,29.97,NE,35,0.0,-999.0,87,-99.99,,,0.00,weatherlink.com 1.10,2013-06-04 02:34:00,
2013-06-03 22:49:00,66.4,63.0,29.98,NE,35,0.0,-999.0,88,-99.99,,,0.00,weatherlink.com 1.10,2013-06-04 02:49:00,
2013-06-03 23:04:00,65.9,62.0,29.99,NE,35,0.0,-999.0,88,-99.99,,,0.00,weatherlink.com 1.10,2013-06-04 03:04:00,
2013-06-03 23:19:00,65.5,62.0,29.99,NE,35,0.0,-999.0,89,-99.99,,,0.00,weatherlink.com 1.10,2013-06-04 03:19:00,
2013-06-03 23:34:00,64.9,62.0,29.99,NE,35,0.0,-999.0,89,-99.99,,,0.00,weatherlink.com 1.10,2013-06-04 03:34:00,
2013-06-03 23:49:00,64.4,62.0,30.00,NE,35,0.0,-999.0,90,-99.99,,,0.00,weatherlink.com 1.10,2013-06-04 03:49:00,